EW1613 Weather Reports


Display with metric or nautical units.
time (UTC)temp
F
wind
direction
speed
MPH
gust
MPH
rain 1hr
in
rain 24hr
in
rain mn
in
humidity
%
barometer
mb
20260509191946 71 119 4.0 10.0 0.00 0.00 0.00 63 1015.3
20260509191503 71 171 3.0 7.0 0.00 0.00 0.00 63 1015.2
20260509191019 71 135 3.0 7.0 0.00 0.00 0.00 63 1015.1
20260509190446 72 182 1.0 7.0 0.00 0.00 0.00 63 1015.1
20260509190004 72 153 3.0 7.0 0.00 0.00 0.00 62 1015.0
20260509185458 72 128 2.0 7.0 0.00 0.00 0.00 61 1015.0
20260509184947 72 140 3.0 7.0 0.00 0.00 0.00 61 1014.9
20260509184445 73 123 2.0 6.0 0.00 0.00 0.00 61 1014.9
20260509184001 73 122 2.0 6.0 0.00 0.00 0.00 60 1014.8
20260509183511 73 109 1.0 4.0 0.00 0.00 0.00 58 1014.7
20260509182947 74 92 1.0 6.0 0.00 0.00 0.00 57 1014.7
20260509182500 74 89 2.0 4.0 0.00 0.00 0.00 54 1014.6
20260509181947 75 179 0.0 3.0 0.00 0.00 0.00 51 1014.5
20260509181444 75 180 1.0 3.0 0.00 0.00 0.00 51 1014.5
20260509181002 75 181 0.0 2.0 0.00 0.00 0.00 51 1014.4
20260509180451 75 181 0.0 3.0 0.00 0.00 0.00 51 1014.5
20260509180009 76 182 1.0 4.0 0.00 0.00 0.00 50 1014.5
20260509175445 76 179 2.0 5.0 0.00 0.00 0.00 50 1014.5
20260509174954 76 185 2.0 5.0 0.00 0.00 0.00 49 1014.6
20260509174451 76 205 2.0 5.0 0.00 0.00 0.00 49 1014.5
20260509173941 77 190 1.0 4.0 0.00 0.00 0.00 49 1014.6
20260509173438 77 190 2.0 4.0 0.00 0.00 0.00 48 1014.6
20260509172953 77 184 1.0 4.0 0.00 0.00 0.00 48 1014.6
20260509172443 77 217 2.0 6.0 0.00 0.00 0.00 47 1014.6
20260509171959 77 241 4.0 7.0 0.00 0.00 0.00 47 1014.6
20260509171454 78 229 4.0 7.0 0.00 0.00 0.00 47 1014.6
20260509170945 78 209 3.0 7.0 0.00 0.00 0.00 46 1014.5
20260509170442 78 242 1.0 5.0 0.00 0.00 0.00 46 1014.5
20260509170021 78 233 3.0 8.0 0.00 0.00 0.00 45 1014.5
20260509165514 79 200 5.0 8.0 0.00 0.00 0.00 45 1014.4
20260509164945 79 215 2.0 7.0 0.00 0.00 0.00 45 1014.5
20260509164501 79 200 4.0 7.0 0.00 0.00 0.00 45 1014.5
20260509163950 79 204 2.0 7.0 0.00 0.00 0.00 43 1014.6
20260509163446 79 238 3.0 7.0 0.00 0.00 0.00 42 1014.6
20260509162938 79 242 3.0 4.0 0.00 0.00 0.00 43 1014.6
20260509162449 79 225 2.0 6.0 0.00 0.00 0.00 42 1014.6
20260509161940 79 249 1.0 6.0 0.00 0.00 0.00 43 1014.7
20260509161439 79 169 2.0 7.0 0.00 0.00 0.00 44 1014.7
20260509160954 79 152 3.0 7.0 0.00 0.00 0.00 44 1014.7
20260509160444 79 181 4.0 7.0 0.00 0.00 0.00 43 1014.7
20260509155942 79 205 2.0 9.0 0.00 0.00 0.00 43 1014.7
20260509155516 79 219 1.0 9.0 0.00 0.00 0.00 42 1014.7
20260509154943 79 242 4.0 8.0 0.00 0.00 0.00 42 1014.7
20260509154459 79 242 4.0 8.0 0.00 0.00 0.00 42 1014.6
20260509153956 80 249 4.0 8.0 0.00 0.00 0.00 44 1014.7
20260509153453 80 220 3.0 7.0 0.00 0.00 0.00 44 1014.7
20260509152944 80 229 4.0 8.0 0.00 0.00 0.00 43 1014.7
20260509152500 80 166 5.0 8.0 0.00 0.00 0.00 42 1014.7
20260509151949 80 226 3.0 11.0 0.00 0.00 0.00 40 1014.8
20260509151446 80 242 7.0 11.0 0.00 0.00 0.00 40 1014.8
20260509150938 80 271 6.0 11.0 0.00 0.00 0.00 40 1014.9
20260509150514 80 245 6.0 11.0 0.00 0.00 0.00 43 1014.9
20260509150010 80 124 0.0 8.0 0.00 0.00 0.00 44 1014.9
20260509145443 80 189 3.0 8.0 0.00 0.00 0.00 43 1015.0
20260509144959 81 129 3.0 8.0 0.00 0.00 0.00 44 1015.1
20260509144450 81 188 4.0 8.0 0.00 0.00 0.00 42 1015.1
20260509143946 81 209 3.0 8.0 0.00 0.00 0.00 41 1015.0
20260509143452 81 246 3.0 6.0 0.00 0.00 0.00 42 1015.0
20260509142949 80 205 1.0 7.0 0.00 0.00 0.00 42 1015.1
20260509142439 80 198 4.0 10.0 0.00 0.00 0.00 42 1015.2
20260509141956 80 195 4.0 10.0 0.00 0.00 0.00 43 1015.1
20260509141455 80 196 4.0 7.0 0.00 0.00 0.00 43 1015.1
20260509140943 80 202 4.0 10.0 0.00 0.00 0.00 43 1015.2
20260509140458 80 211 5.0 10.0 0.00 0.00 0.00 42 1015.2
20260509135950 80 250 1.0 11.0 0.00 0.00 0.00 42 1015.2
20260509135449 80 237 4.0 7.0 0.00 0.00 0.00 41 1015.3
20260509134937 80 230 2.0 12.0 0.00 0.00 0.00 43 1015.3
20260509134454 80 215 2.0 11.0 0.00 0.00 0.00 44 1015.4
20260509133945 80 176 4.0 11.0 0.00 0.00 0.00 44 1015.4
20260509133440 80 130 3.0 10.0 0.00 0.00 0.00 43 1015.4
20260509132937 80 171 4.0 10.0 0.00 0.00 0.00 42 1015.6
20260509132453 80 223 6.0 11.0 0.00 0.00 0.00 39 1015.6
20260509131942 81 235 5.0 9.0 0.00 0.00 0.00 40 1015.6
20260509131438 80 184 3.0 8.0 0.00 0.00 0.00 42 1015.7
20260509130948 80 109 1.0 8.0 0.00 0.00 0.00 42 1015.6
20260509130446 80 214 4.0 9.0 0.00 0.00 0.00 43 1015.7
20260509130003 79 229 5.0 9.0 0.00 0.00 0.00 43 1015.7
20260509125452 79 199 2.0 10.0 0.00 0.00 0.00 44 1015.7
20260509124950 79 240 6.0 10.0 0.00 0.00 0.00 44 1015.7
20260509124440 79 238 2.0 5.0 0.00 0.00 0.00 45 1015.8
20260509123956 79 240 2.0 7.0 0.00 0.00 0.00 44 1015.8
20260509123450 79 258 2.0 9.0 0.00 0.00 0.00 44 1015.9
20260509122941 80 238 6.0 9.0 0.00 0.00 0.00 44 1015.9
20260509122439 80 232 4.0 9.0 0.00 0.00 0.00 43 1015.8
20260509121949 80 217 2.0 8.0 0.00 0.00 0.00 41 1015.8
20260509121447 80 327 2.0 9.0 0.00 0.00 0.00 40 1016.0
20260509120939 80 226 4.0 8.0 0.00 0.00 0.00 41 1016.0
20260509120455 79 216 4.0 8.0 0.00 0.00 0.00 42 1016.0
20260509115954 79 199 3.0 7.0 0.00 0.00 0.00 42 1016.0
20260509115443 79 170 1.0 9.0 0.00 0.00 0.00 45 1016.1
20260509114956 80 240 4.0 10.0 0.00 0.00 0.00 44 1016.2
20260509114446 80 224 4.0 10.0 0.00 0.00 0.00 45 1016.3
20260509113945 80 184 1.0 5.0 0.00 0.00 0.00 46 1016.3
20260509113500 79 192 2.0 5.0 0.00 0.00 0.00 46 1016.3
20260509112947 79 170 1.0 7.0 0.00 0.00 0.00 46 1016.4
20260509112444 78 173 1.0 7.0 0.00 0.00 0.00 47 1016.5
20260509112003 78 188 4.0 11.0 0.00 0.00 0.00 47 1016.5
20260509111519 78 207 5.0 11.0 0.00 0.00 0.00 47 1016.5
20260509110947 78 227 4.0 10.0 0.00 0.00 0.00 48 1016.5
20260509110506 77 190 1.0 8.0 0.00 0.00 0.00 48 1016.6
20260509110001 77 248 1.0 9.0 0.00 0.00 0.00 48 1016.7
20260509105457 78 229 6.0 9.0 0.00 0.00 0.00 49 1016.8
20260509104948 77 315 1.0 7.0 0.00 0.00 0.00 49 1016.8
20260509104438 78 299 2.0 7.0 0.00 0.00 0.00 50 1016.9
20260509104002 77 189 0.0 11.0 0.00 0.00 0.00 51 1016.9
20260509103451 77 221 2.0 11.0 0.00 0.00 0.00 51 1017.0
20260509102948 77 239 3.0 10.0 0.00 0.00 0.00 52 1017.1
20260509102438 76 213 2.0 10.0 0.00 0.00 0.00 52 1017.2
20260509101949 76 228 3.0 11.0 0.00 0.00 0.00 53 1017.1
20260509101446 76 228 6.0 11.0 0.00 0.00 0.00 52 1017.2
20260509100937 76 275 4.0 10.0 0.00 0.00 0.00 52 1017.2
20260509100455 76 185 1.0 8.0 0.00 0.00 0.00 53 1017.2
20260509095949 75 200 2.0 8.0 0.00 0.00 0.00 52 1017.3
20260509095503 75 267 1.0 9.0 0.00 0.00 0.00 55 1017.3
20260509094957 75 281 4.0 8.0 0.00 0.00 0.00 54 1017.3
20260509094521 75 237 2.0 5.0 0.00 0.00 0.00 56 1017.4
20260509093950 75 207 0.0 8.0 0.00 0.00 0.00 56 1017.4
20260509093508 75 206 4.0 8.0 0.00 0.00 0.00 55 1017.5
20260509092937 74 232 0.0 5.0 0.00 0.00 0.00 58 1017.6
20260509092452 74 189 1.0 5.0 0.00 0.00 0.00 58 1017.5
20260509092008 73 320 1.0 7.0 0.00 0.00 0.00 59 1017.6
20260509091436 74 251 2.0 7.0 0.00 0.00 0.00 58 1017.6
20260509090953 73 188 3.0 6.0 0.00 0.00 0.00 59 1017.7
20260509090450 73 298 0.0 5.0 0.00 0.00 0.00 60 1017.7
20260509085947 73 309 2.0 6.0 0.00 0.00 0.00 61 1017.7
20260509085455 73 232 3.0 6.0 0.00 0.00 0.00 61 1017.7
20260509084952 73 236 2.0 5.0 0.00 0.00 0.00 60 1017.8
20260509084445 72 240 1.0 4.0 0.00 0.00 0.00 60 1017.8
20260509083937 72 277 1.0 3.0 0.00 0.00 0.00 63 1017.9
20260509083449 72 275 1.0 3.0 0.00 0.00 0.00 63 1017.9
20260509082938 72 272 0.0 2.0 0.00 0.00 0.00 64 1017.8
20260509082514 71 272 0.0 2.0 0.00 0.00 0.00 64 1017.8
20260509081950 71 271 1.0 2.0 0.00 0.00 0.00 64 1017.7
20260509081439 70 286 0.0 3.0 0.00 0.00 0.00 66 1017.8
20260509081023 70 313 1.0 3.0 0.00 0.00 0.00 65 1017.9
20260509080512 70 309 0.0 1.0 0.00 0.00 0.00 67 1017.8
20260509075949 69 311 0.0 3.0 0.00 0.00 0.00 67 1017.8
20260509075439 69 311 1.0 3.0 0.00 0.00 0.00 67 1017.9
20260509074955 69 5 0.0 2.0 0.00 0.00 0.00 68 1018.0
20260509074451 69 346 0.0 2.0 0.00 0.00 0.00 68 1018.0
20260509073947 68 355 0.0 2.0 0.00 0.00 0.00 68 1018.0
20260509073455 68 355 0.0 2.0 0.00 0.00 0.00 69 1018.0
20260509073011 68 355 0.0 3.0 0.00 0.00 0.00 69 1018.0
20260509072446 68 30 0.0 2.0 0.00 0.00 0.00 69 1018.0
20260509071956 68 31 0.0 2.0 0.00 0.00 0.00 68 1018.0
20260509071452 68 34 0.0 1.0 0.00 0.00 0.00 70 1018.0
20260509070940 67 31 0.0 1.0 0.00 0.00 0.00 71 1018.0
20260509070438 66 31 0.0 1.0 0.00 0.00 0.00 71 1017.9
20260509070011 66 26 0.0 1.0 0.00 0.00 0.00 72 1017.9
20260509065445 65 29 0.0 1.0 0.00 0.00 0.00 74 1017.9
20260509065004 64 30 0.0 1.0 0.00 0.00 0.00 75 1017.9
20260509064452 64 30 0.0 1.0 0.00 0.00 0.00 75 1017.9
20260509063949 64 30 0.0 2.0 0.00 0.00 0.00 76 1017.9
20260509063437 63 34 0.0 1.0 0.00 0.00 0.00 77 1018.0
20260509062954 63 34 0.0 1.0 0.00 0.00 0.00 77 1017.9
20260509062510 62 326 0.0 0.0 0.00 0.00 0.00 78 1017.8
20260509061940 62 325 0.0 0.0 0.00 0.00 0.00 80 1017.8
20260509061437 61 325 0.0 0.0 0.00 0.00 0.00 80 1017.9
20260509060947 60 325 0.0 0.0 0.00 0.00 0.00 80 1017.9
20260509060444 60 325 0.0 0.0 0.00 0.00 0.00 81 1018.0
20260509060000 60 331 0.0 0.0 0.00 0.00 0.00 82 1018.0
20260509055450 59 332 0.0 0.0 0.00 0.00 0.00 82 1017.9
20260509055007 59 332 0.0 0.0 0.00 0.00 0.00 82 1017.9
20260509054504 59 332 0.0 1.0 0.00 0.00 0.00 83 1017.8
20260509054001 59 332 0.0 1.0 0.00 0.00 0.00 84 1017.7
20260509053510 58 332 0.0 0.0 0.00 0.00 0.00 85 1017.7
20260509052946 58 332 0.0 0.0 0.00 0.00 0.00 85 1017.7
20260509052437 58 332 0.0 0.0 0.00 0.00 0.00 85 1017.6
20260509051947 57 332 0.0 1.0 0.00 0.00 0.00 86 1017.6
20260509051443 57 332 0.0 2.0 0.00 0.00 0.00 86 1017.6
20260509050937 57 332 0.0 3.0 0.00 0.00 0.00 87 1017.7
20260509050449 57 332 1.0 3.0 0.00 0.00 0.00 87 1017.7
20260509045947 57 263 1.0 2.0 0.00 0.00 0.00 88 1017.6
20260509045443 56 197 0.0 0.0 0.00 0.00 0.00 88 1017.6
20260509045000 56 197 0.0 0.0 0.00 0.00 0.00 89 1017.6
20260509044449 56 197 0.0 0.0 0.00 0.00 0.00 89 1017.5
20260509043937 56 197 0.0 0.0 0.00 0.00 0.00 90 1017.5
20260509043454 55 197 0.0 0.0 0.00 0.00 0.00 90 1017.4
20260509042951 55 197 0.0 0.0 0.00 0.00 0.00 90 1017.4
20260509042442 55 197 0.0 0.0 0.00 0.00 0.00 89 1017.4
20260509041939 55 197 0.0 0.0 0.00 0.00 0.00 89 1017.4
20260509041453 55 197 0.0 0.0 0.00 0.00 0.00 89 1017.4
20260509041003 55 197 0.0 0.0 0.00 0.00 0.00 89 1017.3
20260509040439 55 197 0.0 0.0 0.00 0.00 0.00 89 1017.4
20260509035937 56 197 0.0 0.0 0.00 0.00 0.00 89 1017.4
20260509035452 56 197 0.0 0.0 0.00 0.00 0.00 89 1017.3
20260509034940 56 197 0.0 0.0 0.00 0.00 0.00 89 1017.3
20260509034459 56 197 0.0 1.0 0.00 0.00 0.00 89 1017.3
20260509033947 56 197 0.0 1.0 0.00 0.00 0.00 89 1017.3
20260509033445 56 197 0.0 1.0 0.00 0.00 0.00 89 1017.3
20260509033001 56 197 0.0 0.0 0.00 0.00 0.00 89 1017.3
20260509032445 56 197 0.0 0.0 0.00 0.00 0.00 89 1017.3
20260509031941 56 197 0.0 0.0 0.00 0.00 0.00 89 1017.3
20260509031459 56 197 0.0 0.0 0.00 0.00 0.00 88 1017.3
20260509030952 56 197 0.0 0.0 0.00 0.00 0.00 88 1017.3
20260509030441 56 197 0.0 0.0 0.00 0.00 0.00 88 1017.3
20260509025955 56 197 0.0 0.0 0.00 0.00 0.00 89 1017.3
20260509025453 57 197 0.0 1.0 0.00 0.00 0.00 89 1017.3
20260509024942 57 197 0.0 2.0 0.00 0.00 0.00 89 1017.2
20260509024438 57 197 1.0 2.0 0.00 0.00 0.00 89 1017.2
20260509023947 57 197 0.0 1.0 0.00 0.00 0.00 88 1017.2
20260509023442 57 197 0.0 0.0 0.00 0.00 0.00 88 1017.3
20260509022938 57 197 0.0 0.0 0.00 0.00 0.00 89 1017.3
20260509022445 57 197 0.0 0.0 0.00 0.00 0.00 89 1017.3
20260509021941 57 197 0.0 0.0 0.00 0.00 0.00 89 1017.2
20260509021458 57 197 0.0 0.0 0.00 0.00 0.00 89 1017.2
20260509020949 57 197 0.0 0.0 0.00 0.00 0.00 88 1017.3
20260509020447 57 197 0.0 0.0 0.00 0.00 0.00 88 1017.2
20260509015938 57 197 0.0 0.0 0.00 0.00 0.00 88 1017.3
20260509015454 57 197 0.0 0.0 0.00 0.00 0.00 88 1017.3
20260509015010 57 197 0.0 0.0 0.00 0.00 0.00 88 1017.2
20260509014439 57 197 0.0 0.0 0.00 0.00 0.00 88 1017.1
20260509013938 57 197 0.0 0.0 0.00 0.00 0.00 88 1017.1
20260509013444 57 197 0.0 0.0 0.00 0.00 0.00 88 1017.0
20260509012942 58 197 0.0 0.0 0.00 0.00 0.00 88 1017.0
20260509012447 57 197 0.0 0.0 0.00 0.00 0.00 88 1017.1
20260509012004 58 197 0.0 0.0 0.00 0.00 0.00 88 1017.0
20260509011441 58 197 0.0 0.0 0.00 0.00 0.00 88 1017.0
20260509010959 57 197 0.0 0.0 0.00 0.00 0.00 88 1017.0
20260509010447 57 197 0.0 0.0 0.00 0.00 0.00 87 1016.9
20260509005945 58 197 0.0 0.0 0.00 0.00 0.00 87 1017.0
20260509005436 58 197 0.0 2.0 0.00 0.00 0.00 87 1017.0
20260509005014 58 197 0.0 2.0 0.00 0.00 0.00 87 1017.0
20260509004451 58 188 0.0 0.0 0.00 0.00 0.00 87 1017.1
20260509003940 58 188 0.0 0.0 0.00 0.00 0.00 86 1017.1
20260509003438 58 188 0.0 0.0 0.00 0.00 0.00 86 1017.0
20260509002947 58 188 0.0 0.0 0.00 0.00 0.00 85 1017.0
20260509002445 58 188 0.0 0.0 0.00 0.00 0.00 85 1017.0
20260509001936 58 188 0.0 0.0 0.00 0.00 0.00 85 1017.0
20260509001452 58 188 0.0 0.0 0.00 0.00 0.00 85 1017.0
20260509000947 58 188 0.0 0.0 0.00 0.00 0.00 85 1017.0
20260509000436 58 188 0.0 0.0 0.00 0.00 0.00 85 1017.0
20260509000020 59 188 0.0 0.0 0.00 0.00 0.00 84 1017.0
20260508235449 59 188 0.0 0.0 0.00 0.00 0.00 84 1017.0
20260508234948 59 188 0.0 0.0 0.00 0.00 0.00 84 1017.0
20260508234436 59 188 0.0 0.0 0.00 0.00 0.00 84 1017.0
20260508234009 59 188 0.0 0.0 0.00 0.00 0.00 84 1017.0
20260508233505 59 188 0.0 0.0 0.00 0.00 0.00 84 1017.0
20260508232940 59 188 0.0 0.0 0.00 0.00 0.00 84 1017.0
20260508232519 60 188 0.0 0.0 0.00 0.00 0.00 83 1017.0
20260508231947 60 188 0.0 0.0 0.00 0.00 0.00 83 1017.0
20260508231442 60 188 0.0 0.0 0.00 0.00 0.00 83 1017.0
20260508230952 60 188 0.0 0.0 0.00 0.00 0.00 83 1017.0
20260508230450 60 188 0.0 0.0 0.00 0.00 0.00 82 1017.0
20260508225941 60 188 0.0 0.0 0.00 0.00 0.00 82 1017.0
20260508225437 60 188 0.0 0.0 0.00 0.00 0.00 82 1017.1
20260508224954 61 188 0.0 0.0 0.00 0.00 0.00 81 1017.0
20260508224445 61 188 0.0 0.0 0.00 0.00 0.00 81 1017.0
20260508224002 61 188 0.0 0.0 0.00 0.00 0.00 81 1017.1
20260508223452 61 188 0.0 0.0 0.00 0.00 0.00 81 1017.1
20260508222948 61 188 0.0 0.0 0.00 0.00 0.00 81 1017.1
20260508222444 61 188 0.0 0.0 0.00 0.00 0.00 80 1017.1
20260508221936 62 188 0.0 0.0 0.00 0.00 0.00 80 1017.1
20260508221453 62 188 0.0 0.0 0.00 0.00 0.00 80 1017.1
20260508220943 62 188 0.0 0.0 0.00 0.00 0.00 80 1017.0
20260508220438 62 188 0.0 0.0 0.00 0.00 0.00 80 1017.0
20260508215944 62 188 0.0 2.0 0.00 0.00 0.00 80 1017.0
20260508215436 62 188 0.0 2.0 0.00 0.00 0.00 79 1017.0
20260508214953 62 188 0.0 2.0 0.00 0.00 0.00 79 1017.0
20260508214440 62 188 0.0 0.0 0.00 0.00 0.00 78 1016.9
20260508213952 62 188 0.0 0.0 0.00 0.00 0.00 78 1016.9
20260508213443 63 188 0.0 0.0 0.00 0.00 0.00 76 1016.8
20260508212942 63 188 0.0 0.0 0.00 0.00 0.00 76 1016.9
20260508212457 63 188 0.0 0.0 0.00 0.00 0.00 75 1016.8
20260508211946 63 188 0.0 0.0 0.00 0.00 0.00 74 1016.9
20260508211445 63 188 0.0 0.0 0.00 0.00 0.00 74 1016.8
20260508210950 63 188 0.0 0.0 0.00 0.00 0.00 73 1016.8
20260508210447 63 188 0.0 0.0 0.00 0.00 0.00 73 1016.8
20260508210004 64 188 0.0 0.0 0.00 0.00 0.00 73 1016.8
20260508205450 64 188 0.0 0.0 0.00 0.00 0.00 72 1016.8
20260508204947 64 188 0.0 0.0 0.00 0.00 0.00 72 1016.7
20260508204436 64 188 0.0 0.0 0.00 0.00 0.00 72 1016.7
20260508203952 64 188 0.0 0.0 0.00 0.00 0.00 71 1016.7
20260508203441 64 188 0.0 0.0 0.00 0.00 0.00 71 1016.7
20260508202957 65 188 0.0 0.0 0.00 0.00 0.00 71 1016.7
20260508202451 65 188 0.0 0.0 0.00 0.00 0.00 71 1016.7
20260508201943 65 188 0.0 0.0 0.00 0.00 0.00 71 1016.7
20260508201459 65 188 0.0 1.0 0.00 0.00 0.00 70 1016.7
20260508200948 65 188 0.0 1.0 0.00 0.00 0.00 70 1016.7
20260508200446 65 188 0.0 2.0 0.00 0.00 0.00 70 1016.6
20260508195955 66 188 1.0 3.0 0.00 0.00 0.00 69 1016.6
20260508195452 66 188 1.0 3.0 0.00 0.00 0.00 69 1016.5
20260508194942 66 188 1.0 2.0 0.00 0.00 0.00 68 1016.5
20260508194459 66 188 0.0 2.0 0.00 0.00 0.00 68 1016.4
20260508193952 66 188 0.0 2.0 0.00 0.00 0.00 68 1016.4
20260508193440 67 188 0.0 2.0 0.00 0.00 0.00 68 1016.3
20260508192938 67 188 0.0 3.0 0.00 0.00 0.00 67 1016.2
20260508192454 67 188 2.0 3.0 0.00 0.00 0.00 67 1016.2